Location: Boullarre
(49.1305°N, 3.0047°E)
Time: 07:55:29
(UTC+00:00)

CZ-4B DEB - Pass Details

Date: 04 October 2023
Orbit: 838 x 858 km, 99.0° (Epoch: 05 December)

Event Time Altitude Azimuth Distance (km) Brightness Sun altitude
Rises 18:17:14 0° 157° (SSE) 3,381 7.1 -10.0°
Reaches altitude 10° 18:19:34 10° 156° (SSE) 2,449 6.3 -10.4°
Maximum altitude 18:24:59 76° 72° (ENE) 868 4.1 -11.3°
Drops below altitude 10° 18:30:27 10° 347° (NNW) 2,467 6.9 -12.1°
Sets 18:32:49 0° 346° (NNW) 3,407 7.6 -12.5°
